Вернуться в каталог

STARLINK-35607

АктивенСвязьVLEO
NORAD 66163·PAYLOAD·🇺🇸 United States

Запущен Oct 25, 2025 с Cape Canaveral Space Force Station

Loading…

Ближайшие Пролёты (ближайшие 24 часа)

TLE

СвежийSource: CelesTrak SupGP

Эпоха: Sep 14, 2026, 15:01 UTC

1 66163C 25240T   26257.62618056 -.00024157  00000+0 -71395-3 0  2576
2 66163  53.1571 261.0652 0001227  85.9100 285.9835 15.34392757    10

Отслеживайте STARLINK-35607 в реальном времени с AllMySat

Download on the App Store